Location: Aldenham
(51.6667°N, 0.3500°W)
Time: 18:02:26
(UTC+00:00)

Cosmos 44 Rocket - Pass Details

Date: 18 November 2025
Orbit: 637 x 741 km, 65.1° (Epoch: 10 December)

Event Time Altitude Azimuth Distance (km) Brightness Sun altitude
Rises 18:17:19 0° 222° (SW) 2,998 7.3 -19.8°
Reaches altitude 10° 18:19:35 10° 224° (SW) 2,104 6.5 -20.1°
Maximum altitude 18:24:23 82° 311° (NW) 702 3.3 -20.9°
Enters shadow 18:26:17 38° 36° (NE) 1,060 3.9 -21.2°
